Regional Weather Roundup
Issued by NWS

Home | Current Version | Previous Version | Graphics & Text | Print | Product List | Glossary On
Versions: 1 2 3 4 5 6 7 8 9 10 11 12 13 14 15 16 17 18 19 20 21 22 23 24 25 26 27 28 29 30 31 32 33 34 35 36 37 38 39 40 41 42 43 44 45 46 47 48 49 50
000
ASUS43 KMKX 290600
RWRWI

WISCONSIN REGIONAL WEATHER ROUNDUP
NATIONAL WEATHER SERVICE MILWAUKEE/SULLIVAN WI
100 AM CDT MON AUG 29 2016

NOTE: "FAIR" INDICATES FEW OR NO CLOUDS BELOW 12,000 FEET WITH NO
SIGNIFICANT WEATHER AND/OR OBSTRUCTIONS TO VISIBILITY.

WIZ001-002-006>008-014>016-023>028-290700-
NORTHWEST WISCONSIN

CITY           SKY/WX    TMP DP  RH WIND       PRES   REMARKS
SUPERIOR ARPT  MOCLDY    65  65  99 N7        30.14R
ASHLAND        FOG       62  62 100 CALM      30.17S VSB<1/4
6HR MIN TEMP:  58; 6HR MAX TEMP:  70;

HAYWARD        FAIR      61  59  93 CALM      30.17F
6HR MIN TEMP:  60; 6HR MAX TEMP:  74;

SIREN          FAIR      67  65  92 SE5       30.13F
CUMBERLAND     FAIR      64  63  94 SE6       30.17F
RICE LAKE      FAIR      64  62  94 CALM      30.19S
CHETEK         NOT AVBL
LADYSMITH      FAIR      65  64  93 SE5       30.21F
EAU CLAIRE     NOT AVBL
MENOMONIE      FAIR      66  65  96 E3        30.17F
6HR MIN TEMP:  65; 6HR MAX TEMP:  78;

NEW RICHMOND   FAIR      68  67  99 SE5       30.15F
OSCEOLA        FAIR      69  69 100 SE5       30.17S
$$

WIZ003>005-009-010-017-018-290700-
NORTH CENTRAL WISCONSIN

CITY           SKY/WX    TMP DP  RH WIND       PRES   REMARKS
MANITOWISH WTR NOT AVBL
ARBOR VITAE    FAIR      62  60  94 CALM      30.23F
WOODRUFF       FAIR      62  60  94 CALM      30.23F
RHINELANDER    FAIR      60  60 100 CALM      30.25S
6HR MIN TEMP:  58; 6HR MAX TEMP:  74;

EAGLE RIVER    FOG       56  56 100 CALM      30.24S VSB 1/2
LAND O LAKES   FAIR      55  55 100 CALM      30.25S FOG
PHILLIPS       FAIR      63  63  98 SE5       30.21F
6HR MIN TEMP:  62; 6HR MAX TEMP:  74;

TOMAHAWK       FAIR      56  55  96 CALM      30.24S
MEDFORD        FAIR      60  60 100 SE3       30.22S
MERRILL        FAIR      59  59 100 CALM      30.23S
$$

WIZ029-030-035-036-043>047-290700-
CENTRAL WISCONSIN

CITY           SKY/WX    TMP DP  RH WIND       PRES   REMARKS
WAUSAU         FAIR      63  62  97 E5        30.22R
6HR MIN TEMP:  63; 6HR MAX TEMP:  75;

MOSINEE        FAIR      61  61 100 SE3       30.24R FOG
MARSHFIELD     FAIR      65  62  90 E3        30.22R
6HR MIN TEMP:  64; 6HR MAX TEMP:  76;

STEVENS POINT  MOCLDY    61  60  97 NE3       30.23S
WAUPACA        FAIR      64  64  98 CALM      30.22F
WAUTOMA        NOT AVBL
WISC RAPIDS    FAIR      66  65  96 CALM      30.23R
6HR MIN TEMP:  64; 6HR MAX TEMP:  77;

CAMP DOUGLAS   FOG       63  63 100 CALM      30.21R VSB 3/4
$$

WIZ011>013-019>022-031-037>040-048>050-290700-
NORTHEAST WISCONSIN

CITY           SKY/WX    TMP DP  RH WIND       PRES   REMARKS
ANTIGO         FAIR      62  61  98 CALM      30.25S
SHAWANO        FAIR      67  64  91 S3        30.24R
OCONTO         NOT AVBL
STURGEON BAY   FAIR      63  62  97 S3        30.25R
6HR MIN TEMP:  62; 6HR MAX TEMP:  71;

GREEN BAY      FAIR      61  61 100 CALM      30.23S
6HR MIN TEMP:  61; 6HR MAX TEMP:  74;

MANITOWOC      FAIR      61  57  88 CALM      30.25R FOG
APPLETON       FAIR      68  66  94 E3        30.22S
CLINTONVILLE   FOG       63  63 100 CALM      30.23S VSB 1/2
OSHKOSH        FAIR      64  62  93 S6        30.23R
6HR MIN TEMP:  64; 6HR MAX TEMP:  76;

$$

WIZ032>034-041-042-053>061-290700-
SOUTHWEST WISCONSIN

CITY           SKY/WX    TMP DP  RH WIND       PRES   REMARKS
LA CROSSE      FAIR      70  69  97 SE6       30.18R
6HR MIN TEMP:  70; 6HR MAX TEMP:  80;

SPARTA         FAIR      62  62  99 CALM      30.20S
VIROQUA        FAIR      69  69 100 SE6       30.21R
6HR MIN TEMP:  68; 6HR MAX TEMP:  74;

BOSCOBEL       FAIR      69  67  93 CALM      30.20R FOG
6HR MIN TEMP:  69; 6HR MAX TEMP:  81;

PRAIRIE DU CHI FAIR      70  68  92 E3        30.18S
PLATTEVILLE    FAIR      69  69 100 E6        30.21S
$$

WIZ056-057-062-063-064-067-068-290700-
SOUTH CENTRAL WISCONSIN

CITY           SKY/WX    TMP DP  RH WIND       PRES   REMARKS
REEDSBURG      NOT AVBL
BARABOO/DELLS  FAIR      66  64  93 CALM      30.21S
LONE ROCK      NOT AVBL
MINERAL POINT  FAIR      72  70  94 SE3       30.22S
MADISON        FAIR      71  69  93 S6        30.21S
6HR MIN TEMP:  69; 6HR MAX TEMP:  78; 6HR PCP: TRACE;

MIDDLETON      FAIR      71  71 100 SE3       30.22S
WATERTOWN      FAIR      66  66 100 CALM      30.23R
MONROE         FAIR      70  66  88 SE7       30.22S
JANESVILLE     FAIR      70  68  94 E3        30.22S
$$

WIZ051-052-058>065-066-070>072-290700-
SOUTHEAST WISCONSIN

CITY           SKY/WX    TMP DP  RH WIND       PRES   REMARKS
MILWAUKEE      FAIR      68  65  90 CALM      30.23F
6HR MIN TEMP:  67; 6HR MAX TEMP:  72;

WAUKESHA       FAIR      64  64 100 SE5       30.25S
MILWAUKEE/TIMM FAIR      66  63  88 CALM      30.24F
RACINE         FAIR      66  64  93 CALM      30.24F
6HR MIN TEMP:  65; 6HR MAX TEMP:  72;

BURLINGTON       N/A     64  63  98 CALM      30.23F FOG
KENOSHA        FAIR      66  65  96 CALM      30.23F FOG
6HR MIN TEMP:  65; 6HR MAX TEMP:  71;

FOND DU LAC    MOCLDY    64  62  93 S3        30.24R
6HR MIN TEMP:  63; 6HR MAX TEMP:  75;

SHEBOYGAN      FOG       60  59  96 SW3       30.25R VSB 1/4
6HR MIN TEMP:  59; 6HR MAX TEMP:  70;

WEST BEND      FAIR      61  59  94 CALM      30.25R
JUNEAU         MOCLDY    66  65  97 E6        30.24S FOG
$$

LSZ147-162-290700-
LAKE SUPERIOR

STATION/POSITION TIME  TEMP    WIND        PRES    WAVE
                       AIR SEA DIR/SP/G            HT/PER
                 (UTC) (F)     (DEG/KT/KT) (MB)    (FT/S)
W MID LAKE BUOY  0450   68 67  130/ 12/ 14 1021.3F   1
DEVILS ISLAND    0500   66     120/ 10/ 11 1021.1F
PORT WING        0540   65      CALM  /  2 1020.7F
SAXON HARBOR     0500   63     210/  5/  6 1021.3
$$

LMZ867-665-643>646-290700-
LAKE MICHIGAN

STATION/POSITION TIME  TEMP    WIND        PRES    WAVE
                       AIR SEA DIR/SP/G            HT/PER
                 (UTC) (F)     (DEG/KT/KT) (MB)    (FT/S)
CHAMBERS ISLAND  0500   62     140/  2/  2 1023.4R
S GREEN BAY BUOY 0530   69 72  180/  6/  8 1023.1R
N MID LAKE BUOY  0450   70 71  110/  4/  6 1023.3R   0
NORTHPORT PIER   0500   67     180/  3/  5 1023.4S
KEWAUNEE LAKESHO 0500   62        CALM     1023.2R
SHEBOYGAN LAKESH 0500   65        CALM     1023.6R
PORT WASHINGTON  0540   66     260/  1/  2 1024.7R
ATWATER BUOY     0500   67     250/  2/  2   N/A
MILWAUKEE LAKESH 0510   68      CALM  /  1   N/A
S MID LAKE BUOY  0450   73 75   70/  6/  6 1023.1R   1
KENOSHA   LAKESH 0500   70      CALM  /  1 1023.4S
$$

TC  - TEMPERATURE IN CELSIUS
VSB - VISIBILITY IN STATUTE MILES
WCI - WIND CHILL INDEX
HX  - HEAT INDEX





USA.gov is the U.S. government's official web portal to all federal, state and local government web resources and services.